FW7421 Weather Reports


Display with metric or nautical units.
time (UTC)temp
F
wind
direction
speed
MPH
gust
MPH
rain 1hr
in
rain 24hr
in
rain mn
in
humidity
%
barometer
mb
20260508174548 69 209 5.0 11.0 0.00 0.00 0.00 42 1017.7
20260508173041 69 227 7.0 11.0 0.00 0.00 0.00 39 1018.0
20260508171542 69 225 3.0 9.0 0.00 0.00 0.00 41 1018.1
20260508170043 66 94 4.0 12.0 0.00 0.00 0.00 41 1018.4
20260508164543 69 147 3.0 6.0 0.00 0.00 0.00 37 1018.7
20260508163041 67 294 6.0 10.0 0.00 0.00 0.00 38 1018.9
20260508161545 67 197 5.0 10.0 0.00 0.00 0.00 41 1019.1
20260508160044 67 355 3.0 9.0 0.00 0.00 0.00 44 1019.5
20260508154541 66 34 3.0 9.0 0.00 0.00 0.00 45 1019.6
20260508153042 65 231 3.0 9.0 0.00 0.00 0.00 47 1019.6
20260508151546 65 44 2.0 10.0 0.00 0.00 0.00 47 1019.7
20260508150041 65 300 1.0 8.0 0.00 0.00 0.00 49 1019.8
20260508144547 64 186 2.0 8.0 0.00 0.00 0.00 46 1019.8
20260508143043 63 24 2.0 7.0 0.00 0.00 0.00 49 1019.9
20260508141543 62 330 1.0 7.0 0.00 0.00 0.00 51 1019.9
20260508140043 61 169 1.0 6.0 0.00 0.00 0.00 53 1020.0
20260508134544 61 115 1.0 4.0 0.00 0.00 0.00 57 1019.9
20260508133048 60 238 0.0 4.0 0.00 0.00 0.00 62 1020.0
20260508131547 59 234 2.0 7.0 0.00 0.00 0.00 66 1020.0
20260508130045 59 273 1.0 3.0 0.00 0.00 0.00 65 1019.6
20260508124542 58 261 1.0 3.0 0.00 0.03 0.00 68 1019.5
20260508123048 56 260 1.0 3.0 0.00 0.03 0.00 71 1019.5
20260508121543 53 261 1.0 3.0 0.00 0.03 0.00 77 1019.5
20260508120043 50 280 1.0 3.0 0.00 0.03 0.00 85 1019.3
20260508114602 47 360 1.0 3.0 0.00 0.13 0.00 90 1019.2
20260508113045 46 292 1.0 3.0 0.00 0.13 0.00 92 1018.8
20260508111557 45 0 0.0 2.0 0.00 0.13 0.00 91 1018.4
20260508110041 44 290 0.0 2.0 0.00 0.13 0.00 91 1018.4
20260508104541 44 0 0.0 2.0 0.00 0.15 0.00 91 1018.1
20260508103041 44 290 1.0 3.0 0.00 0.15 0.00 90 1017.8
20260508101544 45 0 0.0 2.0 0.00 0.15 0.00 90 1017.2
20260508100043 45 290 1.0 3.0 0.00 0.15 0.00 90 1017.3
20260508094545 45 292 0.0 2.0 0.00 0.15 0.00 90 1017.2
20260508093041 46 0 0.0 1.0 0.00 0.15 0.00 90 1017.2
20260508091551 46 0 0.0 1.0 0.00 0.15 0.00 90 1017.3
20260508090052 46 0 0.0 2.0 0.00 0.15 0.00 89 1017.1
20260508084542 46 292 0.0 3.0 0.00 0.15 0.00 88 1016.9
20260508083049 47 293 2.0 3.0 0.00 0.15 0.00 88 1016.9
20260508081547 47 0 0.0 3.0 0.00 0.15 0.00 88 1016.8
20260508080041 48 0 0.0 2.0 0.00 0.15 0.00 88 1016.7
20260508074544 48 0 0.0 3.0 0.00 0.15 0.00 88 1016.5
20260508073043 48 0 0.0 3.0 0.00 0.15 0.00 86 1016.5
20260508071545 48 290 0.0 2.0 0.00 0.15 0.00 86 1016.4
20260508070044 49 290 1.0 3.0 0.00 0.15 0.00 86 1016.4
20260508064543 49 0 0.0 0.0 0.00 0.16 0.00 86 1016.1
20260508063044 49 0 0.0 0.0 0.00 0.16 0.00 86 1016.1
20260508061541 49 0 0.0 2.0 0.00 0.16 0.00 85 1016.0
20260508060042 50 0 0.0 0.0 0.00 0.16 0.00 85 1016.1
20260508054547 50 63 0.0 1.0 0.00 0.21 0.00 83 1016.1
20260508053055 50 0 0.0 2.0 0.00 0.21 0.00 82 1016.0
20260508051547 51 0 0.0 0.0 0.00 0.21 0.00 82 1016.0
20260508050042 52 0 0.0 2.0 0.00 0.21 0.00 80 1015.9
20260508044541 52 0 0.0 2.0 0.00 0.24 0.00 80 1015.7
20260508043049 53 68 0.0 2.0 0.00 0.24 0.00 78 1015.6
20260508041547 53 0 0.0 2.0 0.00 0.24 0.00 76 1015.6
20260508040045 53 0 0.0 1.0 0.00 0.24 0.00 76 1015.7
20260508034547 53 0 0.0 2.0 0.00 0.24 0.24 76 1015.6
20260508033042 54 0 0.0 0.0 0.00 0.24 0.24 74 1015.7
20260508031541 55 0 0.0 3.0 0.00 0.24 0.24 71 1015.6
20260508024929 56 74 0.0 8.0 0.00 0.26 0.24 69 1015.3
20260508023042 56 42 3.0 10.0 0.00 0.26 0.24 67 1014.9
20260508021547 56 325 2.0 5.0 0.00 0.26 0.24 67 1014.9
20260508020042 57 355 1.0 9.0 0.00 0.26 0.24 68 1014.8
20260508014541 57 360 1.0 4.0 0.00 0.31 0.24 66 1014.5
20260508013047 58 0 0.0 4.0 0.00 0.31 0.24 66 1014.2
20260508011543 58 0 0.0 1.0 0.00 0.31 0.24 64 1014.2
20260508010042 59 22 0.0 4.0 0.00 0.31 0.24 64 1014.0
20260508004543 59 312 2.0 11.0 0.00 0.41 0.24 60 1013.7
20260508003043 60 18 4.0 13.0 0.00 0.41 0.24 60 1013.4
20260508001542 60 313 2.0 8.0 0.00 0.41 0.24 62 1013.2
20260508000040 61 339 4.0 10.0 0.00 0.41 0.24 61 1013.2
20260507234549 63 322 2.0 10.0 0.00 0.43 0.24 62 1013.2
20260507233041 64 330 4.0 14.0 0.00 0.43 0.24 60 1012.7
20260507231551 66 286 5.0 11.0 0.00 0.43 0.24 58 1012.6
20260507230040 67 309 3.0 10.0 0.00 0.43 0.24 60 1012.4
20260507224547 67 321 4.0 12.0 0.00 0.43 0.24 60 1012.1
20260507223043 68 248 6.0 17.0 0.00 0.43 0.24 59 1011.7
20260507221542 68 308 3.0 14.0 0.00 0.43 0.24 59 1011.4
20260507220041 69 343 5.0 14.0 0.00 0.43 0.24 58 1010.8
20260507214541 70 292 7.0 14.0 0.00 0.43 0.24 57 1010.6
20260507213046 71 323 7.0 13.0 0.00 0.43 0.24 57 1010.5
20260507211544 71 293 4.0 13.0 0.00 0.43 0.24 59 1010.2
20260507210045 72 298 7.0 16.0 0.00 0.43 0.24 57 1010.1
20260507204545 74 297 7.0 12.0 0.00 0.43 0.24 56 1009.9
20260507203044 76 22 5.0 14.0 0.00 0.43 0.24 54 1009.7
20260507201541 76 289 9.0 17.0 0.00 0.43 0.24 53 1009.7
20260507200047 77 259 6.0 14.0 0.00 0.43 0.24 54 1009.5
20260507194544 77 238 6.0 12.0 0.00 0.43 0.24 53 1009.4
20260507193050 77 250 10.0 17.0 0.00 0.43 0.24 52 1009.5
20260507191542 77 279 8.0 16.0 0.00 0.43 0.24 54 1009.5
20260507190041 77 234 10.0 19.0 0.00 0.43 0.24 55 1009.5
20260507184540 77 299 5.0 13.0 0.00 0.43 0.24 60 1009.6
20260507183047 76 189 5.0 9.0 0.00 0.43 0.24 66 1009.8
20260507181543 75 182 3.0 8.0 0.00 0.43 0.24 66 1009.8
20260507180047 75 232 5.0 9.0 0.00 0.43 0.24 65 1009.8